Regional Weather Roundup
Issued by NWS

Home | Current Version | Previous Version | Text Only | Print | Product List | Glossary On
Versions: 1 2 3 4 5 6 7 8 9 10 11 12 13 14 15 16 17 18 19 20 21 22 23 24 25 26 27 28 29 30 31 32 33 34 35 36 37 38 39 40 41 42 43 44 45 46 47 48 49 50
000
ASCA44 KEWX 260620
RWRMX

LATIN AMERICA AND CARIBBEAN REGIONAL WEATHER ROUNDUP
NATIONAL WEATHER SERVICE AUSTIN/SAN ANTONIO TX
100 AM CDT TUE JUL 26 2016

NOTE: "FAIR" INDICATED FEW OR NO CLOUDS BELOW 12,000 FEET WITH NO
SIGNIFICANT WEATHER AND/OR OBSTRUCTIONS TO VISIBILITY.

BAJA CALIFORNIA

CITY           SKY/WX    TMP DP  RH WIND       PRES   REMARKS
LA PAZ         PTCLDY    79  72  78 CALM      29.91
MEXICALI       PTCLDY    91  63  38 SE6       29.77  HX  92
S.J. DEL CABO  CLEAR     81  66  61 NW3       29.89S
TIJUANA        PTCLDY    70  63  78 CALM      29.95S

NORTHWESTERN MEXICO

CITY           SKY/WX    TMP DP  RH WIND       PRES   REMARKS
HERMOSILLO     CLOUDY    86  75  70 S5        29.89S HX  95

NORTHEASTERN MEXICO

CITY           SKY/WX    TMP DP  RH WIND       PRES   REMARKS
MONCLOVA         N/A    N/A N/A N/A MISG        N/A
MONTERREY      PTCLDY    82  70  65 E8        29.90S
REYNOSA          N/A    N/A N/A N/A MISG        N/A
CD. VICTORIA     N/A    N/A N/A N/A MISG        N/A

WESTERN MEXICO

CITY           SKY/WX    TMP DP  RH WIND       PRES   REMARKS
AGUASCALIENTES   N/A    N/A N/A N/A MISG        N/A
COLIMA           N/A    N/A N/A N/A MISG        N/A
DEL BAJIO      PTCLDY    63  55  77 CALM      30.29R
GUADALAJARA    PTCLDY    68  61  77 CALM      30.16
MAZATLAN       CLOUDY    84  79  84 N5        29.85R HX  96
P. VALLARTA    CLOUDY    82  79  89 CALM      29.87S HX  93
URUAPAN          N/A    N/A N/A N/A MISG        N/A
ZACATECAS      PTCLDY    63  52  67 E8        30.30R

CENTRAL MEXICO

CITY           SKY/WX    TMP DP  RH WIND       PRES   REMARKS
CUERNAVACA       N/A    N/A N/A N/A MISG        N/A
MEXICO CITY    CLOUDY    59  55  88 NW5       30.37F
MORELIA        CLOUDY    61  59  94 CALM      30.22
POZA RICA        N/A    N/A N/A N/A MISG        N/A
QUERETARO      PTCLDY    59  55  88 E8        30.32R
S. LUIS POTOSI CLEAR     63  54  72 SE7       30.25S
TOLUCA         LGT RAIN  54  52  94 CALM      30.45R

SOUTHERN MEXICO

CITY           SKY/WX    TMP DP  RH WIND       PRES   REMARKS
ACAPULCO       MOCLDY    81  73  78 N5        29.91R
B. DE HUATULCO   N/A    N/A N/A N/A MISG        N/A
P. ESCONDIDO     N/A    N/A N/A N/A MISG        N/A
VERACRUZ         N/A    N/A N/A N/A MISG        N/A

YUCATAN PENINSULA

CITY           SKY/WX    TMP DP  RH WIND       PRES   REMARKS
CAMPECHE         N/A    N/A N/A N/A MISG        N/A
CANCUN         MOCLDY    84  77  79 E5        29.98F HX  94
CHETUMAL         N/A    N/A N/A N/A MISG        N/A
CD. DEL CARMEN   N/A    N/A N/A N/A MISG        N/A
COZUMEL        PTCLDY    75  75 100 CALM      29.98F
MERIDA         PTCLDY    81  75  83 E7        29.96F
MINATITLAN       N/A    N/A N/A N/A MISG        N/A
TAPACHULA      PTCLDY    81  75  83 CALM      29.84F
TUX. GUTIERREZ MOCLDY    73  68  83 SE6       29.96R

CENTRAL AMERICA

CITY           SKY/WX    TMP DP  RH WIND       PRES   REMARKS

CARIBBEAN

CITY           SKY/WX    TMP DP  RH WIND       PRES   REMARKS
KINGSTON       PTCLDY    84  73  70 N6        29.92F HX  91
NASSAU         PTCLDY    84  77  79 E5        30.07F HX  94
SAN JUAN       TSTM      79  77  94 SE3       29.98F
SANTO DOMINGO  PTCLDY    75  73  94 CALM      29.97R
ST. CROIX      PTCLDY    79  77  94 NE7       29.97

$$





USA.gov is the U.S. government's official web portal to all federal, state and local government web resources and services.